TimeCST,TemperatureF,Dew PointF,Humidity,Sea Level PressureIn,VisibilityMPH,Wind Direction,Wind SpeedMPH,Gust SpeedMPH,PrecipitationIn,Events,Conditions,WindDirDegrees,DateUTC
12:15 AM,57.0,57.0,100,29.72,10.0,SW,3.5,-,N/A,,Overcast,230,2012-12-17 06:15:00
12:55 AM,56.3,56.3,100,29.71,7.0,Calm,Calm,-,N/A,,Overcast,0,2012-12-17 06:55:00
1:15 AM,56.1,56.1,100,29.72,7.0,SW,3.5,-,N/A,,Overcast,220,2012-12-17 07:15:00
1:35 AM,56.1,56.1,100,29.72,7.0,SW,3.5,-,N/A,,Mostly Cloudy,230,2012-12-17 07:35:00
1:55 AM,55.2,55.2,100,29.71,7.0,SW,3.5,-,N/A,,Scattered Clouds,220,2012-12-17 07:55:00
2:15 AM,54.7,54.7,100,29.71,5.0,Calm,Calm,-,N/A,,Scattered Clouds,0,2012-12-17 08:15:00
2:35 AM,54.9,54.9,100,29.70,5.0,Calm,Calm,-,N/A,,Mostly Cloudy,0,2012-12-17 08:35:00
2:55 AM,54.9,54.9,100,29.70,7.0,SSW,4.6,-,N/A,,Mostly Cloudy,210,2012-12-17 08:55:00
3:15 AM,54.5,54.5,100,29.70,7.0,SW,3.5,-,N/A,,Scattered Clouds,220,2012-12-17 09:15:00
3:55 AM,53.8,53.8,100,29.69,5.0,Calm,Calm,-,N/A,,Clear,0,2012-12-17 09:55:00
4:15 AM,53.4,53.4,100,29.69,4.0,Calm,Calm,-,N/A,,Mostly Cloudy,0,2012-12-17 10:15:00
4:35 AM,53.6,53.6,100,29.68,3.0,Calm,Calm,-,N/A,,Mostly Cloudy,0,2012-12-17 10:35:00
4:55 AM,54.0,54.0,100,29.66,3.0,Calm,Calm,-,N/A,,Mostly Cloudy,0,2012-12-17 10:55:00
5:15 AM,53.6,53.6,100,29.66,2.5,Calm,Calm,-,N/A,,Scattered Clouds,0,2012-12-17 11:15:00
5:35 AM,53.1,53.1,100,29.66,1.0,Calm,Calm,-,N/A,,Mostly Cloudy,0,2012-12-17 11:35:00
5:55 AM,53.2,53.2,100,29.66,1.8,Calm,Calm,-,N/A,,Mostly Cloudy,0,2012-12-17 11:55:00
6:15 AM,54.0,54.0,100,29.65,4.0,Calm,Calm,-,N/A,,Overcast,0,2012-12-17 12:15:00
6:35 AM,54.1,54.1,100,29.65,4.0,Calm,Calm,-,N/A,,Overcast,0,2012-12-17 12:35:00
6:55 AM,54.0,54.0,100,29.65,4.0,Calm,Calm,-,N/A,,Overcast,0,2012-12-17 12:55:00
7:15 AM,54.5,54.5,100,29.65,5.0,Calm,Calm,-,N/A,,Overcast,0,2012-12-17 13:15:00
7:35 AM,54.5,54.5,100,29.64,5.0,SSE,3.5,-,N/A,,Overcast,160,2012-12-17 13:35:00
7:55 AM,54.7,54.7,100,29.65,10.0,SSW,3.5,-,N/A,,Overcast,210,2012-12-17 13:55:00
8:15 AM,55.2,55.2,100,29.65,7.0,South,4.6,-,N/A,,Overcast,190,2012-12-17 14:15:00
8:35 AM,55.6,55.6,100,29.65,10.0,SW,8.1,-,N/A,,Overcast,220,2012-12-17 14:35:00
8:55 AM,55.8,55.4,99,29.65,10.0,SW,6.9,-,N/A,,Overcast,230,2012-12-17 14:55:00
9:15 AM,56.3,55.2,96,29.65,10.0,SSW,10.4,16.1,N/A,,Overcast,210,2012-12-17 15:15:00
9:35 AM,58.1,54.7,88,29.65,10.0,SW,11.5,-,N/A,,Overcast,230,2012-12-17 15:35:00
9:55 AM,57.4,54.0,88,29.65,10.0,SW,11.5,16.1,N/A,,Mostly Cloudy,230,2012-12-17 15:55:00
10:15 AM,56.7,53.8,90,29.66,10.0,WSW,11.5,19.6,N/A,,Overcast,240,2012-12-17 16:15:00
10:35 AM,57.0,53.6,88,29.66,10.0,WSW,11.5,-,N/A,,Overcast,250,2012-12-17 16:35:00
10:55 AM,55.6,52.0,88,29.66,10.0,SW,13.8,18.4,N/A,,Overcast,230,2012-12-17 16:55:00
11:15 AM,55.4,51.4,87,29.65,10.0,WSW,12.7,-,N/A,,Mostly Cloudy,250,2012-12-17 17:15:00
11:55 AM,55.4,51.3,86,29.63,10.0,WSW,9.2,-,N/A,,Overcast,240,2012-12-17 17:55:00
12:15 PM,56.5,51.6,84,29.62,10.0,West,9.2,-,N/A,,Overcast,260,2012-12-17 18:15:00
12:35 PM,56.5,51.4,83,29.62,10.0,West,9.2,-,N/A,,Mostly Cloudy,270,2012-12-17 18:35:00
12:55 PM,55.8,50.7,83,29.61,10.0,West,11.5,-,N/A,,Scattered Clouds,260,2012-12-17 18:55:00
1:15 PM,56.3,49.3,77,29.60,10.0,West,9.2,-,N/A,,Clear,280,2012-12-17 19:15:00
1:35 PM,56.3,46.9,71,29.60,10.0,West,5.8,-,N/A,,Clear,260,2012-12-17 19:35:00
1:55 PM,56.3,46.6,70,29.60,10.0,WSW,11.5,-,N/A,,Clear,250,2012-12-17 19:55:00
2:15 PM,55.4,45.7,70,29.61,10.0,West,11.5,16.1,N/A,,Scattered Clouds,260,2012-12-17 20:15:00
2:35 PM,53.2,45.5,75,29.62,10.0,WNW,12.7,17.3,N/A,,Mostly Cloudy,290,2012-12-17 20:35:00
2:55 PM,49.8,43.9,80,29.63,10.0,WNW,13.8,19.6,N/A,,Overcast,300,2012-12-17 20:55:00
3:15 PM,48.7,43.0,80,29.65,10.0,West,13.8,19.6,N/A,,Overcast,280,2012-12-17 21:15:00
3:35 PM,47.7,42.8,83,29.65,10.0,WNW,12.7,-,N/A,,Overcast,300,2012-12-17 21:35:00
3:55 PM,46.4,42.1,85,29.66,10.0,WNW,11.5,16.1,N/A,,Overcast,290,2012-12-17 21:55:00
6:15 PM,43.9,43.9,100,29.73,7.0,WNW,6.9,-,N/A,,Overcast,290,2012-12-18 00:15:00
6:35 PM,43.9,43.7,99,29.73,10.0,NW,6.9,-,N/A,,Overcast,310,2012-12-18 00:35:00
6:55 PM,44.1,43.7,99,29.74,10.0,WNW,6.9,-,N/A,,Overcast,290,2012-12-18 00:55:00
7:15 PM,43.9,43.5,99,29.74,10.0,WNW,8.1,-,N/A,,Overcast,300,2012-12-18 01:15:00
7:35 PM,44.1,43.3,97,29.74,10.0,WNW,8.1,-,N/A,,Overcast,300,2012-12-18 01:35:00
7:55 PM,43.7,41.0,90,29.75,10.0,WNW,10.4,16.1,N/A,,Overcast,300,2012-12-18 01:55:00
8:15 PM,43.7,40.3,88,29.76,10.0,WNW,11.5,-,N/A,,Overcast,300,2012-12-18 02:15:00
8:35 PM,43.5,39.6,86,29.77,10.0,WNW,10.4,-,N/A,,Overcast,300,2012-12-18 02:35:00
8:55 PM,43.2,39.2,86,29.77,10.0,WNW,9.2,-,N/A,,Overcast,300,2012-12-18 02:55:00
9:15 PM,43.0,39.4,87,29.78,10.0,WNW,4.6,-,N/A,,Overcast,300,2012-12-18 03:15:00
9:35 PM,43.0,39.2,86,29.79,10.0,WNW,9.2,-,N/A,,Overcast,290,2012-12-18 03:35:00
9:55 PM,42.8,39.4,88,29.79,10.0,WNW,6.9,-,N/A,,Overcast,300,2012-12-18 03:55:00
10:15 PM,42.8,39.4,88,29.80,10.0,NW,4.6,-,N/A,,Overcast,310,2012-12-18 04:15:00
10:35 PM,42.8,39.2,87,29.81,10.0,WNW,5.8,-,N/A,,Overcast,300,2012-12-18 04:35:00
10:55 PM,43.0,39.0,86,29.81,10.0,NW,5.8,-,N/A,,Overcast,320,2012-12-18 04:55:00
11:15 PM,43.0,38.3,84,29.82,10.0,WNW,5.8,-,N/A,,Overcast,290,2012-12-18 05:15:00
11:35 PM,43.0,37.9,82,29.82,10.0,WNW,5.8,-,N/A,,Overcast,290,2012-12-18 05:35:00
11:55 PM,43.0,37.8,82,29.83,10.0,WNW,3.5,-,N/A,,Overcast,290,2012-12-18 05:55:00